This demonstration page uses our WeatherBlox Daily Observations layout. Learn more.

Left ArrowRight Arrow

31.84235, -102.49876

Hourly Observations for March 1, 2015

Temp ( °F °C ) Dew Point ( °F °C ) Humidity (%) Winds ( mph kmh ) Pressure ( in mb ) Visibility ( mi km ) Precip ( " mm )
12:53 am 00:53 Cloudy with Mist and Fog 31 -0.6 28 -2.2 89 89 E 8 13 30.19 1023 1 2 0.00 0.00
1:53 am 01:53 Cloudy with Mist and Fog 31 -0.6 29 -1.7 92 92 E 6 9 30.20 1023 1 2 0.00 0.00
2:53 am 02:53 Cloudy with Mist and Fog 31 -0.6 29 -1.7 92 92 E 7 11 30.18 1022 1 2 0.00 0.00
3:53 am 03:53 Cloudy with Mist and Fog 31 -0.6 29 -1.7 92 92 E 7 11 30.18 1022 1 2 0.00 0.00
4:53 am 04:53 Cloudy with Mist and Fog 31 -0.6 28 -2.2 89 89 E 7 11 30.18 1022 1 2 0.00 0.00
5:53 am 05:53 Cloudy with Mist and Fog 31 -0.6 29 -1.7 92 92 E 8 13 30.19 1023 1 2 0.00 0.00
6:14 am 06:14 Cloudy with Mist and Fog 31 -0.6 29 -1.7 92 92 E 8 13 30.30 1026 1 1 0.00 0.00
6:53 am 06:53 Cloudy with Mist and Fog 31 -0.6 29 -1.7 92 92 E 8 13 30.21 1023 1 1 0.00 0.00
7:53 am 07:53 Cloudy with Freezing Fog 31 -0.6 29 -1.7 92 92 ENE 8 13 30.22 1024 1 1 0.00 0.00
8:53 am 08:53 Cloudy with Freezing Fog 31 -0.6 29 -1.7 92 92 E 8 13 30.24 1024 1 1 0.00 0.00
9:12 am 09:12 Cloudy with Freezing Fog 31 -0.6 29 -1.7 92 92 E 8 13 30.36 1028 0 0 0.00 0.00
9:49 am 09:49 Cloudy with Fog 32 0 28 -2 87 87 E 8 13 30.36 1028 1 1 0.00 0.00
9:53 am 09:53 Cloudy with Fog 32 0 29 -1.7 88 88 ENE 8 13 30.26 1025 1 1 0.00 0.00
10:53 am 10:53 Cloudy with Fog 33 0.6 31 -0.6 92 92 E 8 13 30.28 1025 1 1 0.00 0.00
11:53 am 11:53 Cloudy with Fog 34 1.1 33 0.6 97 97 ENE 8 13 30.27 1025 1 1 0.00 0.00
12:19 pm 12:19 Cloudy with Mist and Fog 35 1.7 33 0.6 93 93 E 7 11 30.33 1027 2 2 0.00 0.00
12:37 pm 12:37 Cloudy with Mist and Fog 35 1.7 33 0.6 93 93 E 7 11 30.33 1027 2 3 0.00 0.00
1:53 pm 13:53 Cloudy with Mist and Fog 37 2.8 34 1.1 89 89 E 7 11 30.22 1023 5 8 0.00 0.00
2:28 pm 14:28 Cloudy with Mist and Fog 38 3.3 34 1.1 86 86 E 8 13 30.27 1025 6 10 0.00 0.00
2:53 pm 14:53 Cloudy with Mist and Fog 38 3.3 35 1.7 89 89 E 8 13 30.20 1023 5 8 0.00 0.00
3:36 pm 15:36 Cloudy with Mist and Fog 38 3.3 35 1.7 89 89 E 7 11 30.27 1025 6 10 0.00 0.00
3:53 pm 15:53 Cloudy 38 3.3 34 1.1 86 86 E 7 11 30.20 1023 7 11 0.00 0.00
4:53 pm 16:53 Cloudy 38 3.3 35 1.7 89 89 ENE 10 17 30.19 1023 8 13 0.00 0.00
5:10 pm 17:10 Cloudy with Mist and Fog 37 2.8 34 1.1 89 89 ENE 12 19 30.24 1024 6 10 0.00 0.00
5:49 pm 17:49 Cloudy with Mist and Fog 37 3 34 1 87 87 ENE 12 19 30.27 1025 2 3 0.00 0.00
5:53 pm 17:53 Cloudy with Mist and Fog 37 2.8 34 1.1 89 89 ENE 13 20 30.21 1023 2 2 0.00 0.00
6:06 pm 18:06 Cloudy with Fog 36 2.2 35 1.7 97 97 ENE 14 22 30.30 1026 1 1 0.00 0.00
6:30 pm 18:30 Mostly Cloudy with Fog 36 2.2 34 1.1 93 93 ENE 12 19 30.30 1026 0 0 0.00 0.00
6:53 pm 18:53 Cloudy with Mist and Fog 35 1.7 34 1.1 96 96 E 13 20 30.23 1024 1 1 0.00 0.00
7:53 pm 19:53 Mostly Cloudy with Mist and Fog 35 1.7 33 0.6 93 93 ENE 13 20 30.27 1025 1 1 0.00 0.00
8:53 pm 20:53 Cloudy with Mist and Fog 34 1.1 32 0 92 92 ENE 9 15 30.32 1027 1 1 0.00 0.00
9:53 pm 21:53 Cloudy with Mist and Fog 33 0.6 31 -0.6 92 92 ENE 15 24 30.32 1027 1 2 0.00 0.00
10:49 pm 22:49 Cloudy with Mist and Fog 32 0 30 -1 93 93 E 8 13 30.48 1032 3 5 0.00 0.00
10:53 pm 22:53 Cloudy with Mist and Fog 32 0 31 -0.6 96 96 ENE 10 17 30.36 1028 3 5 0.00 0.00
11:07 pm 23:07 Cloudy with Mist and Fog 32 0 31 -0.6 96 96 ENE 10 17 30.45 1031 3 4 0.00 0.00
11:53 pm 23:53 Cloudy with Mist and Fog 32 0 30 -1.1 92 92 ENE 15 24 30.33 1027 2 3 0.00 0.00

Powered by AerisWeather